| time (UTC) | temp F | wind direction | speed knots | gust knots | rain 1hr in | rain 24hr in | rain mn in | humidity % | barometer mb |
| 20260504090107 | 45 | 0 | 0.0 | 0.0 | 0.00 | 0.00 | 0.00 | 94 | 1017.8 |
| 20260504081554 | 46 | 0 | 0.0 | 0.0 | 0.00 | 0.00 | 0.00 | 93 | 1017.8 |
| 20260504044553 | 48 | 0 | 0.0 | 0.0 | 0.00 | 0.00 | 0.00 | 90 | 1018.8 |
| 20260504043054 | 48 | 0 | 0.0 | 0.0 | 0.00 | 0.00 | 0.00 | 89 | 1018.7 |
| 20260504041553 | 48 | 0 | 0.0 | 0.0 | 0.00 | 0.00 | 0.00 | 88 | 1018.8 |
| 20260504040109 | 48 | 0 | 0.0 | 0.0 | 0.00 | 0.00 | 0.00 | 87 | 1018.9 |
| 20260504034600 | 49 | 0 | 0.0 | 0.0 | 0.00 | 0.00 | 0.00 | 85 | 1019.2 |
| 20260504033052 | 49 | 0 | 0.0 | 0.0 | 0.00 | 0.00 | 0.00 | 85 | 1019.3 |
| 20260504031552 | 50 | 0 | 0.0 | 0.0 | 0.00 | 0.00 | 0.00 | 84 | 1019.4 |
| 20260504030052 | 50 | 0 | 0.0 | 0.0 | 0.00 | 0.00 | 0.00 | 84 | 1019.4 |
| 20260504024555 | 51 | 0 | 0.0 | 0.0 | 0.00 | 0.00 | 0.00 | 84 | 1019.3 |
| 20260504023053 | 51 | 0 | 0.0 | 0.0 | 0.00 | 0.00 | 0.00 | 84 | 1019.2 |
| 20260504021554 | 52 | 0 | 0.0 | 0.0 | 0.00 | 0.00 | 0.00 | 83 | 1018.9 |
| 20260504020052 | 53 | 0 | 0.0 | 0.0 | 0.00 | 0.00 | 0.00 | 82 | 1018.8 |
| 20260504014553 | 53 | 0 | 0.0 | 0.0 | 0.00 | 0.00 | 0.00 | 80 | 1018.6 |
| 20260504013108 | 54 | 0 | 0.0 | 0.0 | 0.00 | 0.00 | 0.00 | 77 | 1018.6 |
| 20260504011553 | 55 | 0 | 0.0 | 0.0 | 0.00 | 0.00 | 0.00 | 75 | 1018.5 |
| 20260504010101 | 57 | 0 | 0.0 | 0.0 | 0.00 | 0.00 | 0.00 | 70 | 1018.6 |
| 20260504004608 | 59 | 0 | 0.0 | 0.0 | 0.00 | 0.00 | 0.00 | 67 | 1018.5 |
| 20260504003051 | 62 | 0 | 0.0 | 0.0 | 0.00 | 0.00 | 0.00 | 61 | 1018.5 |
| 20260504001555 | 64 | 0 | 0.0 | 2.6 | 0.00 | 0.00 | 0.00 | 54 | 1018.4 |
| 20260504000114 | 65 | 0 | 0.0 | 3.5 | 0.00 | 0.00 | 0.00 | 49 | 1018.4 |
| 20260503234554 | 66 | 0 | 0.0 | 3.5 | 0.00 | 0.00 | 0.00 | 51 | 1018.5 |
| 20260503233059 | 67 | 0 | 1.7 | 5.2 | 0.00 | 0.00 | 0.00 | 43 | 1018.5 |
| 20260503231558 | 69 | 182 | 0.9 | 4.3 | 0.00 | 0.00 | 0.00 | 43 | 1018.4 |
| 20260503230057 | 69 | 0 | 1.7 | 6.1 | 0.00 | 0.00 | 0.00 | 42 | 1018.5 |
| 20260503224555 | 69 | 228 | 1.7 | 6.1 | 0.00 | 0.00 | 0.00 | 39 | 1018.7 |
| 20260503223054 | 70 | 215 | 0.9 | 6.1 | 0.00 | 0.00 | 0.00 | 41 | 1018.6 |
| 20260503221559 | 70 | 214 | 1.7 | 7.0 | 0.00 | 0.00 | 0.00 | 39 | 1018.6 |
| 20260503220118 | 70 | 201 | 0.9 | 7.8 | 0.00 | 0.00 | 0.00 | 38 | 1018.8 |
| 20260503214555 | 70 | 209 | 2.6 | 7.8 | 0.00 | 0.00 | 0.00 | 37 | 1019.0 |
| 20260503213100 | 69 | 217 | 0.9 | 7.8 | 0.00 | 0.00 | 0.00 | 36 | 1018.9 |
| 20260503211556 | 69 | 251 | 2.6 | 9.6 | 0.00 | 0.00 | 0.00 | 42 | 1019.3 |
| 20260503210057 | 70 | 360 | 0.9 | 5.2 | 0.00 | 0.00 | 0.00 | 42 | 1019.4 |
| 20260503204606 | 69 | 209 | 1.7 | 5.2 | 0.00 | 0.00 | 0.00 | 40 | 1019.6 |
| 20260503203101 | 69 | 240 | 1.7 | 5.2 | 0.00 | 0.00 | 0.00 | 41 | 1019.9 |
| 20260503201555 | 69 | 0 | 1.7 | 4.3 | 0.00 | 0.00 | 0.00 | 45 | 1020.0 |
| 20260503200101 | 67 | 195 | 1.7 | 7.0 | 0.00 | 0.00 | 0.00 | 44 | 1020.3 |
| 20260503194602 | 67 | 221 | 1.7 | 7.8 | 0.00 | 0.00 | 0.00 | 44 | 1020.7 |
| 20260503193056 | 66 | 187 | 2.6 | 7.8 | 0.00 | 0.00 | 0.00 | 48 | 1021.0 |
| 20260503191553 | 67 | 157 | 2.6 | 7.0 | 0.00 | 0.00 | 0.00 | 45 | 1021.3 |
| 20260503190054 | 66 | 0 | 2.6 | 9.6 | 0.00 | 0.00 | 0.00 | 50 | 1021.5 |
| 20260503184604 | 65 | 360 | 0.9 | 8.7 | 0.00 | 0.00 | 0.00 | 52 | 1021.6 |
| 20260503183056 | 65 | 188 | 1.7 | 8.7 | 0.00 | 0.00 | 0.00 | 57 | 1021.8 |
| 20260503181556 | 64 | 175 | 1.7 | 7.0 | 0.00 | 0.00 | 0.00 | 53 | 1021.9 |
| 20260503180106 | 65 | 265 | 0.9 | 7.0 | 0.00 | 0.00 | 0.00 | 55 | 1022.1 |
| 20260503174553 | 65 | 0 | 0.9 | 5.2 | 0.00 | 0.00 | 0.00 | 57 | 1022.4 |
| 20260503173103 | 63 | 0 | 0.0 | 5.2 | 0.00 | 0.00 | 0.00 | 57 | 1022.3 |
| 20260503171554 | 64 | 0 | 0.0 | 3.5 | 0.00 | 0.00 | 0.00 | 52 | 1022.7 |